Change the Weather History Date:

Sunday, December 22, 2013

  Actual Average Record
Temperature  
Mean Temperature -8 °F -  
Max Temperature 1 °F -1 °F 19 °F (2003)
Min Temperature -16 °F -28 °F -56 °F (1971)
Degree Days  
Heating Degree Days 72    
Moisture  
Dew Point -21 °F    
Average Humidity 47    
Maximum Humidity 92    
Minimum Humidity 12    
Precipitation  
Precipitation 0.00 in - - ()
Sea Level Pressure  
Sea Level Pressure 29.41 in    
Wind  
Wind Speed 0 mph (North)    
Max Wind Speed 5 mph    
Max Gust Speed -    
Visibility 8 miles    
Events      
Averages and records for this station are not official NWS values.
T = Trace of Precipitation, MM = Missing Value Source: NWS Daily Summary

Daily Weather History Graph

Daily Weather History Graph

Search for Another Location

Airport or City:

Trip Planner

Search our weather history database for the weather conditions in past years. The results will help you decide how hot, cold, wet, or windy it might be!

Date:

Astronomy

Dec. 22, 2013 Rise Set
Actual Time 12:08 PM AKST 1:13 PM AKST
Civil Twilight 10:03 AM AKST 3:18 PM AKST
Nautical Twilight 8:33 AM AKST 4:48 PM AKST
Astronomical Twilight 7:21 AM AKST 6:00 PM AKST
Moon 10:06 PM AKST (12/22) 11:49 AM AKST (12/22)
Length of Visible Light 5h 14m
Length of Day
1h 04m
Waning Gibbous, 75% of the Moon is Illuminated
Dec 22
Waning Gibbous
Dec 25
Last Quarter
Jan 1
New
Jan 7
First Quarter
Jan 15
Full

Hourly Weather History & Observations

Time (AKST) Temp. Windchill Dew Point Humidity Pressure Visibility Wind Dir Wind Speed Gust Speed Precip Events Conditions
12:16 AM -5.8 °F - - N/A% 29.45 in 10.0 mi Calm Calm - N/A   Overcast
12:36 AM -5.8 °F - - N/A% 29.45 in 10.0 mi Calm Calm - N/A   Overcast
12:56 AM -5.8 °F - -29.2 °F 32% 29.45 in 10.0 mi Calm Calm - N/A   Scattered Clouds
1:16 AM -5.8 °F - -25.6 °F 38% 29.44 in 10.0 mi Calm Calm - N/A   Partly Cloudy
1:36 AM -5.8 °F - -18.4 °F 55% 29.44 in 10.0 mi Calm Calm - N/A   Clear
1:56 AM -7.6 °F - -18.4 °F 59% 29.44 in 10.0 mi Calm Calm - N/A   Clear
2:16 AM -7.6 °F - -25.6 °F 41% 29.43 in 10.0 mi Calm Calm - N/A   Clear
2:36 AM -7.6 °F - - N/A% 29.42 in 10.0 mi Calm Calm - N/A   Clear
2:56 AM -7.6 °F - - N/A% 29.42 in 10.0 mi Calm Calm - N/A   Clear
3:16 AM -7.6 °F - - N/A% 29.42 in 10.0 mi Calm Calm - N/A   Clear
3:36 AM -7.6 °F - -27.4 °F 38% 29.42 in 10.0 mi Calm Calm - N/A   Clear
3:56 AM -9.4 °F - -23.8 °F 49% 29.42 in 10.0 mi Calm Calm - N/A   Clear
4:16 AM -11.2 °F - -23.8 °F 54% 29.41 in 10.0 mi Calm Calm - N/A   Clear
4:36 AM -9.4 °F - -18.4 °F 65% 29.41 in 10.0 mi Calm Calm - N/A   Clear
4:56 AM -9.4 °F - - N/A% 29.40 in 10.0 mi Calm Calm - N/A   Clear
5:16 AM -13.0 °F - - N/A% 29.40 in 10.0 mi Calm Calm - N/A   Clear
5:36 AM -9.4 °F - - N/A% 29.40 in 10.0 mi Calm Calm - N/A   Clear
5:56 AM -9.4 °F - -29.2 °F 37% 29.39 in 10.0 mi Calm Calm - N/A   Clear
6:16 AM -11.2 °F - -29.2 °F 41% 29.39 in 10.0 mi Calm Calm - N/A   Clear
6:36 AM -11.2 °F - -27.4 °F 45% 29.39 in 10.0 mi Calm Calm - N/A   Clear
6:56 AM -14.8 °F - -25.6 °F 58% 29.39 in 10.0 mi Calm Calm - N/A   Clear
7:16 AM -13.0 °F - -20.2 °F 70% 29.39 in 10.0 mi Calm Calm - N/A   Clear
7:36 AM -11.2 °F - - N/A% 29.38 in 10.0 mi Calm Calm - N/A   Clear
7:56 AM -14.8 °F - - N/A% 29.38 in 10.0 mi Calm Calm - N/A   Clear
8:16 AM -14.8 °F - - N/A% 29.38 in 9.0 mi Calm Calm - N/A   Clear
8:36 AM -14.8 °F - - N/A% 29.38 in 10.0 mi Calm Calm - N/A   Clear
8:56 AM -16.6 °F - - N/A% 29.38 in 10.0 mi Calm Calm - N/A   Scattered Clouds
9:16 AM -11.2 °F - - N/A% 29.37 in 10.0 mi Calm Calm - N/A   Mostly Cloudy
9:36 AM -16.6 °F - - N/A% 29.37 in 10.0 mi Calm Calm - N/A   Overcast
9:56 AM -14.8 °F - -27.4 °F 53% 29.37 in 10.0 mi Calm Calm - N/A   Overcast
10:16 AM -14.8 °F -24.8 °F -16.6 °F 92% 29.38 in 10.0 mi North 3.5 mph - N/A   Overcast
10:36 AM -14.8 °F - - N/A% 29.38 in 10.0 mi Calm Calm - N/A   Overcast
10:56 AM -13.0 °F - -14.8 °F 92% 29.38 in 10.0 mi Calm Calm - N/A   Overcast
11:16 AM -11.2 °F -23.0 °F - N/A% 29.38 in 10.0 mi North 4.6 mph - N/A   Overcast
11:36 AM -11.2 °F - - N/A% 29.38 in 10.0 mi Calm Calm - N/A   Overcast
11:56 AM -9.4 °F - - N/A% 29.39 in 10.0 mi Calm Calm - N/A   Overcast
12:16 PM -9.4 °F - -29.2 °F 37% 29.39 in 10.0 mi Calm Calm - N/A   Overcast
12:36 PM -7.6 °F - -25.6 °F 41% 29.39 in 10.0 mi Calm Calm - N/A   Overcast
12:56 PM -7.6 °F - -16.6 °F 65% 29.39 in 10.0 mi Calm Calm - N/A   Overcast
1:16 PM -5.8 °F - -16.6 °F 60% 29.39 in 10.0 mi Calm Calm - N/A   Overcast
1:36 PM -5.8 °F - -20.2 °F 50% 29.38 in 10.0 mi Calm Calm - N/A   Overcast
1:56 PM -5.8 °F - - N/A% 29.39 in 10.0 mi Calm Calm - N/A   Overcast
2:16 PM -5.8 °F - -29.2 °F 32% 29.39 in 10.0 mi Calm Calm - N/A   Overcast
2:36 PM -4.0 °F - -25.6 °F 35% 29.39 in 10.0 mi Calm Calm - N/A   Overcast
2:56 PM -4.0 °F - -18.4 °F 50% 29.40 in 10.0 mi Calm Calm - N/A   Overcast
3:16 PM -2.2 °F - -7.6 °F 78% 29.40 in 10.0 mi Calm Calm - N/A   Overcast
3:36 PM -2.2 °F -12.5 °F -23.8 °F 35% 29.40 in 10.0 mi NNE 4.6 mph - N/A   Overcast
3:56 PM -0.4 °F - -29.2 °F 25% 29.40 in 10.0 mi Calm Calm - N/A   Overcast
4:16 PM -2.2 °F - -27.4 °F 29% 29.40 in 10.0 mi Calm Calm - N/A   Overcast
4:36 PM -0.4 °F - -25.6 °F 30% 29.40 in 10.0 mi Calm Calm - N/A   Overcast
4:56 PM -0.4 °F - -18.4 °F 43% 29.40 in 10.0 mi Calm Calm - N/A   Overcast
5:16 PM -0.4 °F - -11.2 °F 60% 29.41 in 10.0 mi Calm Calm - N/A   Overcast
5:36 PM -0.4 °F - -7.6 °F 72% 29.41 in 10.0 mi Calm Calm - N/A   Overcast
5:56 PM -0.4 °F - -2.2 °F 92% 29.41 in 10.0 mi Calm Calm - N/A   Overcast
6:16 PM -0.4 °F - - N/A% 29.41 in 10.0 mi Calm Calm - N/A   Overcast
6:36 PM -0.4 °F - -27.4 °F 27% 29.41 in 2.5 mi Calm Calm - N/A   Overcast
6:56 PM -0.4 °F - -23.8 °F 32% 29.42 in 5.0 mi Calm Calm - N/A   Overcast
7:16 PM -0.4 °F - -20.2 °F 39% 29.42 in 4.0 mi Calm Calm - N/A   Overcast
7:36 PM -0.4 °F -8.3 °F -11.2 °F 60% 29.43 in 10.0 mi WSW 3.5 mph - N/A   Overcast
7:56 PM -0.4 °F - -16.6 °F 46% 29.43 in 3.0 mi Calm Calm - N/A   Overcast
8:16 PM -0.4 °F - -27.4 °F 27% 29.43 in 2.5 mi Calm Calm - N/A   Overcast
8:36 PM -0.4 °F - -23.8 °F 32% 29.43 in 2.0 mi Calm Calm - N/A   Overcast
8:56 PM 1.4 °F - -14.8 °F 47% 29.43 in 2.5 mi Calm Calm - N/A   Overcast
9:16 PM 1.4 °F - -9.4 °F 61% 29.43 in 2.5 mi Calm Calm - N/A   Overcast
9:36 PM 1.4 °F - -27.4 °F 25% 29.43 in 3.0 mi Calm Calm - N/A   Overcast
9:56 PM 1.4 °F - -16.6 °F 43% 29.43 in 2.0 mi Calm Calm - N/A   Overcast
10:16 PM 1.4 °F - -16.6 °F 43% 29.43 in 2.0 mi Calm Calm - N/A   Overcast
10:36 PM 1.4 °F - -13.0 °F 51% 29.43 in 1.8 mi Calm Calm - N/A   Overcast
10:56 PM 1.4 °F - -41.8 °F 12% 29.43 in 2.0 mi Calm Calm - N/A   Overcast
11:16 PM 1.4 °F - -27.4 °F 25% 29.44 in 2.0 mi Calm Calm - N/A   Overcast
11:36 PM 1.4 °F - -16.6 °F 43% 29.44 in 3.0 mi Calm Calm - N/A   Overcast
11:56 PM 1.4 °F - -11.2 °F 56% 29.44 in 3.0 mi Calm Calm - N/A   Overcast